EW5586 Weather Reports


time (UTC)temp
C
wind
direction
speed
KPH
gust
KPH
rain 1hr
cm
rain 24hr
cm
rain mn
cm
humidity
%
barometer
mb
20260905233053 20 346 0.0 0.0 0.00 0.00 0.00 82 1014.1
20260905232041 20 355 0.0 0.0 0.00 0.00 0.00 82 1014.3
20260905231535 20 14 0.0 0.0 0.00 0.00 0.00 81 1014.2
20260905231029 20 11 0.0 0.0 0.00 0.00 0.00 81 1014.2
20260905230523 20 350 0.0 0.0 0.00 0.00 0.00 81 1014.1
20260905230017 20 11 0.0 0.0 0.00 0.00 0.00 80 1014.1
20260905225518 20 18 0.0 0.0 0.00 0.00 0.00 80 1014.0
20260905225017 20 355 0.0 0.0 0.00 0.00 0.00 80 1013.9
20260905224518 20 0 0.0 0.0 0.00 0.00 0.00 80 1013.9
20260905224018 21 25 0.0 3.2 0.00 0.00 0.00 79 1013.8
20260905223517 21 11 0.0 6.4 0.00 0.00 0.00 79 1013.8
20260905223018 21 355 0.0 6.4 0.00 0.00 0.00 78 1013.7
20260905221517 21 16 6.4 14.5 0.00 0.00 0.00 77 1013.6
20260905221017 21 341 3.2 14.5 0.00 0.00 0.00 76 1013.6
20260905220017 21 332 0.0 6.4 0.00 0.00 0.00 77 1013.6
20260905215518 21 9 0.0 0.0 0.00 0.00 0.00 76 1013.6
20260905214518 21 20 0.0 6.4 0.00 0.00 0.00 76 1013.4
20260905214016 21 355 0.0 6.4 0.00 0.00 0.00 75 1013.4
20260905213513 22 0 0.0 0.0 0.00 0.00 0.00 75 1013.3
20260905213007 22 0 0.0 0.0 0.00 0.00 0.00 75 1013.2
20260905212501 22 5 0.0 0.0 0.00 0.00 0.00 77 1013.1
20260905212007 22 21 0.0 0.0 0.00 0.00 0.00 75 1013.1
20260905211449 22 26 0.0 0.0 0.00 0.00 0.00 76 1013.1
20260905210943 22 18 0.0 0.0 0.00 0.00 0.00 78 1013.1
20260905210438 22 5 0.0 0.0 0.00 0.00 0.00 77 1013.1
20260905205931 22 34 0.0 0.0 0.00 0.00 0.00 76 1013.1
20260905205426 22 355 0.0 0.0 0.00 0.00 0.00 75 1013.0
20260905204924 22 5 0.0 0.0 0.00 0.00 0.00 75 1013.1
20260905204423 22 20 0.0 0.0 0.00 0.00 0.00 75 1013.1
20260905203925 22 348 0.0 0.0 0.00 0.00 0.00 75 1013.1
20260905203423 22 9 0.0 0.0 0.00 0.00 0.00 75 1013.1
20260905202923 22 338 0.0 0.0 0.00 0.00 0.00 75 1013.1
20260905202423 22 338 0.0 0.0 0.00 0.00 0.00 74 1013.1
20260905201923 23 338 0.0 6.4 0.00 0.00 0.00 71 1013.2
20260905201423 23 18 0.0 6.4 0.00 0.00 0.00 71 1013.1
20260905200924 23 338 0.0 0.0 0.00 0.00 0.00 72 1013.1
20260905200423 23 348 0.0 0.0 0.00 0.00 0.00 72 1013.1
20260905195923 23 355 0.0 0.0 0.00 0.00 0.00 72 1013.1
20260905195424 23 355 0.0 0.0 0.00 0.00 0.00 74 1013.1
20260905194424 23 355 0.0 1.6 0.00 0.00 0.00 73 1013.0
20260905193922 24 355 0.0 1.6 0.00 0.00 0.00 73 1013.0
20260905193421 23 336 0.0 3.2 0.00 0.00 0.00 73 1013.0
20260905192921 23 201 0.0 3.2 0.00 0.00 0.00 73 1013.0
20260905192420 23 198 0.0 0.0 0.00 0.00 0.00 76 1013.0
20260905191917 23 187 0.0 1.6 0.00 0.00 0.00 73 1013.0
20260905191415 22 267 0.0 1.6 0.00 0.00 0.00 75 1013.0
20260905190916 22 269 0.0 0.0 0.00 0.00 0.00 75 1013.0
20260905190415 22 282 0.0 1.6 0.00 0.00 0.00 78 1013.1
20260905185916 22 197 0.0 3.2 0.00 0.00 0.00 76 1013.1
20260905184915 22 161 3.2 9.7 0.00 0.00 0.00 77 1013.1
20260905184415 22 191 4.8 9.7 0.00 0.00 0.00 74 1013.0
20260905183915 22 197 4.8 8.0 0.00 0.00 0.00 74 1013.1
20260905183415 22 196 3.2 8.0 0.00 0.00 0.00 74 1013.1
20260905182913 22 178 1.6 8.0 0.00 0.00 0.00 73 1013.1
20260905182413 22 196 0.0 4.8 0.00 0.00 0.00 75 1013.0
20260905181413 22 221 0.0 4.8 0.00 0.00 0.00 74 1013.0
20260905180912 22 175 0.0 0.0 0.00 0.00 0.00 78 1013.0
20260905175911 22 355 1.6 8.0 0.00 0.00 0.00 75 1013.2
20260905174911 23 190 0.0 6.4 0.00 0.00 0.00 73 1013.3
20260905174410 23 185 0.0 0.0 0.00 0.00 0.00 72 1013.3
20260905173911 23 246 0.0 4.8 0.00 0.00 0.00 72 1013.4
20260905173411 24 221 0.0 4.8 0.00 0.00 0.00 75 1013.4
20260905172907 23 225 0.0 1.6 0.00 0.00 0.00 75 1013.4
20260905172408 23 49 0.0 0.0 0.00 0.00 0.00 77 1013.5
20260905171907 23 267 0.0 4.8 0.00 0.00 0.00 77 1013.5
20260905171407 23 174 0.0 4.8 0.00 0.00 0.00 77 1013.5
20260905165907 23 316 0.0 0.0 0.00 0.00 0.00 80 1013.7
20260905165407 22 5 0.0 1.6 0.00 0.00 0.00 80 1013.6
20260905164907 22 175 0.0 1.6 0.00 0.00 0.00 81 1013.6
20260905163903 21 273 0.0 1.6 0.00 0.00 0.00 85 1013.7
20260905163403 21 208 0.0 6.4 0.00 0.00 0.00 84 1013.7
20260905162903 20 5 1.6 11.3 0.00 0.00 0.00 83 1013.8
20260905162403 20 22 1.6 11.3 0.00 0.00 0.00 81 1013.8
20260905161904 21 24 0.0 0.0 0.00 0.00 0.00 81 1013.8
20260905160904 21 30 0.0 0.0 0.00 0.00 0.00 83 1013.7
20260905160403 20 343 0.0 4.8 0.00 0.00 0.00 89 1013.6
20260905155900 20 5 0.0 6.4 0.00 0.00 0.00 87 1013.7
20260905155358 20 348 0.0 6.4 0.00 0.00 0.00 87 1013.8
20260905154859 20 5 0.0 3.2 0.00 0.00 0.00 86 1013.8
20260905154359 19 355 0.0 3.2 0.00 0.00 0.00 88 1013.8
20260905153859 19 19 0.0 0.0 0.00 0.00 0.00 87 1013.8
20260905152859 19 339 0.0 0.0 0.00 0.00 0.00 88 1013.9
20260905152357 19 5 0.0 0.0 0.00 0.00 0.00 89 1013.9
20260905151855 19 323 0.0 0.0 0.00 0.00 0.00 88 1013.9
20260905151355 18 348 0.0 0.0 0.00 0.00 0.00 89 1013.8
20260905150854 18 11 0.0 3.2 0.00 0.00 0.00 88 1013.9
20260905145849 18 19 0.0 8.0 0.00 0.00 0.00 88 1013.9
20260905144849 18 5 1.6 6.4 0.00 0.00 0.00 88 1013.8
20260905143847 18 31 0.0 1.6 0.00 0.00 0.00 89 1013.8
20260905143345 18 0 0.0 1.6 0.00 0.00 0.00 89 1013.9
20260905142845 18 12 0.0 0.0 0.00 0.00 0.00 89 1013.9
20260905141842 18 20 0.0 4.8 0.00 0.00 0.00 90 1013.9
20260905141343 18 22 0.0 4.8 0.00 0.00 0.00 90 1013.8
20260905140842 18 355 0.0 0.0 0.00 0.00 0.00 91 1013.8
20260905140341 18 5 0.0 0.0 0.00 0.00 0.00 91 1013.8
20260905135837 18 5 0.0 0.0 0.00 0.00 0.00 91 1013.8
20260905135337 18 5 0.0 0.0 0.00 0.00 0.00 92 1013.9
20260905134834 17 0 0.0 0.0 0.00 0.00 0.00 92 1013.9
20260905134334 17 340 0.0 3.2 0.00 0.00 0.00 92 1013.9
20260905133830 17 327 1.6 8.0 0.00 0.00 0.00 92 1013.9
20260905132830 17 355 0.0 8.0 0.00 0.00 0.00 92 1013.9
20260905132329 17 5 0.0 0.0 0.00 0.00 0.00 92 1013.7
20260905131328 17 355 1.6 11.3 0.00 0.00 0.00 93 1013.7
20260905130829 17 348 0.0 11.3 0.00 0.00 0.00 93 1013.7
20260905130329 17 26 1.6 6.4 0.00 0.00 0.00 94 1013.7
20260905125827 17 9 1.6 6.4 0.00 0.00 0.00 94 1013.6
20260905125326 16 350 0.0 4.8 0.00 0.00 0.00 94 1013.6
20260905124827 16 10 0.0 4.8 0.00 0.00 0.00 94 1013.6
20260905124325 16 5 0.0 8.0 0.00 0.00 0.00 95 1013.5
20260905123824 16 12 0.0 8.0 0.00 0.00 0.00 95 1013.5
20260905122823 16 15 3.2 19.3 0.00 0.00 0.00 95 1013.4
20260905121316 16 0 4.8 12.9 0.00 0.00 0.00 96 1013.2
20260905120809 16 22 3.2 14.5 0.00 0.00 0.00 96 1013.2
20260905120304 15 17 3.2 14.5 0.00 0.00 0.00 96 1013.2
20260905115758 15 5 1.6 9.7 0.00 0.00 0.00 96 1013.1
20260905115252 15 355 1.6 12.9 0.00 0.00 0.00 96 1013.0
20260905114748 15 355 0.0 12.9 0.00 0.00 0.00 96 1012.9
20260905113734 15 355 1.6 11.3 0.00 0.00 0.00 95 1012.9
20260905112722 15 339 3.2 11.3 0.00 0.00 0.00 95 1012.7
20260905112220 15 5 1.6 11.3 0.00 0.00 0.00 95 1012.7
20260905111721 15 330 1.6 9.7 0.00 0.00 0.00 95 1012.6
20260905111218 15 346 0.0 9.7 0.00 0.00 0.00 95 1012.5
20260905110718 -17 0.0 0.0 0.00 0.00 0.00 1012.5
20260905110127 -17 0.0 0.0 0.00 0.00 0.00 1012.5
20260905105024 -17 0.0 0.0 0.00 0.00 0.00 1012.4
20260905104514 -17 0.0 0.0 0.00 0.00 0.00 1012.3
20260905103923 -17 0.0 0.0 0.00 0.00 0.00 1012.3
20260905103417 -17 0.0 0.0 0.00 0.00 0.00 1012.3
20260905102915 -17 0.0 0.0 0.00 0.00 0.00 1012.3
20260905102321 -17 0.0 0.0 0.00 0.00 0.00 1012.2
20260905101820 -17 0.0 0.0 0.00 0.00 0.00 1012.2
20260905101320 -17 0.0 0.0 0.00 0.00 0.00 1012.2
20260905100818 -17 0.0 0.0 0.00 0.00 0.00 1012.1
20260905095704 -17 0.0 0.0 0.00 0.00 0.00 1012.1
20260905095123 -17 0.0 0.0 0.00 0.00 0.00 1012.0
20260905094621 -17 0.0 0.0 0.00 0.00 0.00 1012.1
20260905094119 -17 0.0 0.0 0.00 0.00 0.00 1012.1
20260905093023 -17 0.0 0.0 0.00 0.00 0.00 1012.1
20260905092517 -17 0.0 0.0 0.00 0.00 0.00 1012.1
20260905091924 -17 0.0 0.0 0.00 0.00 0.00 1012.0
20260905091419 -17 0.0 0.0 0.00 0.00 0.00 1012.1
20260905090916 -17 0.0 0.0 0.00 0.00 0.00 1012.1
20260905090323 -17 0.0 0.0 0.00 0.00 0.00 1012.0
20260905085820 -17 0.0 0.0 0.00 0.00 0.00 1012.1
20260905084720 -17 0.0 0.0 0.00 0.00 0.00 1012.0
20260905084215 -17 0.0 0.0 0.00 0.00 0.00 1012.1
20260905083650 -17 0.0 0.0 0.00 0.00 0.00 1012.1
20260905083106 -17 0.0 0.0 0.00 0.00 0.00 1012.1
20260905081413 -17 0.0 0.0 0.00 0.00 0.00 1012.0
20260905080817 16 355 0.0 0.0 0.00 0.00 0.00 93 1011.9
20260905080316 16 355 0.0 0.0 0.00 0.00 0.00 93 1011.9
20260905075808 16 355 0.0 0.0 0.00 0.00 0.00 93 1011.9
20260905074758 16 355 0.0 0.0 0.00 0.00 0.00 93 1011.9
20260905074256 16 355 0.0 0.0 0.00 0.00 0.00 93 1011.9
20260905073756 16 355 0.0 0.0 0.00 0.00 0.00 93 1011.9
20260905073257 16 355 0.0 0.0 0.00 0.00 0.00 93 1011.9
20260905072754 16 355 0.0 0.0 0.00 0.00 0.00 93 1011.9
20260905072252 16 0 0.0 0.0 0.00 0.00 0.00 93 1011.9
20260905071752 16 0 0.0 0.0 0.00 0.00 0.00 92 1011.9
20260905070748 16 5 0.0 0.0 0.00 0.00 0.00 92 1011.8
20260905070246 16 0 0.0 0.0 0.00 0.00 0.00 92 1011.8
20260905065746 16 9 0.0 0.0 0.00 0.00 0.00 92 1011.7
20260905065247 16 355 0.0 0.0 0.00 0.00 0.00 92 1011.8
20260905064746 16 9 0.0 0.0 0.00 0.00 0.00 92 1011.8
20260905064247 16 348 0.0 0.0 0.00 0.00 0.00 91 1011.8
20260905063747 17 355 0.0 0.0 0.00 0.00 0.00 91 1011.9
20260905062242 17 0 0.0 1.6 0.00 0.00 0.00 91 1012.0
20260905061743 17 5 0.0 1.6 0.00 0.00 0.00 91 1012.0
20260905061242 17 5 0.0 0.0 0.00 0.00 0.00 91 1011.9
20260905060740 17 0 0.0 0.0 0.00 0.00 0.00 91 1011.9
20260905060240 17 9 0.0 0.0 0.00 0.00 0.00 90 1011.9
20260905055741 17 355 0.0 0.0 0.00 0.00 0.00 90 1011.9
20260905054739 17 0 0.0 0.0 0.00 0.00 0.00 90 1012.0
20260905054240 17 0 0.0 0.0 0.00 0.00 0.00 90 1012.1
20260905053740 17 0 0.0 0.0 0.00 0.00 0.00 90 1012.1
20260905052741 17 10 0.0 0.0 0.00 0.00 0.00 90 1012.1
20260905052240 17 5 0.0 0.0 0.00 0.00 0.00 90 1012.2
20260905051736 17 5 0.0 0.0 0.00 0.00 0.00 90 1012.2
20260905051237 17 355 0.0 0.0 0.00 0.00 0.00 89 1012.2
20260905045236 17 5 0.0 0.0 0.00 0.00 0.00 89 1012.4
20260905044736 17 9 0.0 0.0 0.00 0.00 0.00 89 1012.3
20260905044236 17 0 0.0 0.0 0.00 0.00 0.00 88 1012.3
20260905043232 17 9 0.0 0.0 0.00 0.00 0.00 88 1012.2
20260905042232 17 0 0.0 0.0 0.00 0.00 0.00 87 1012.2
20260905041733 17 0 0.0 0.0 0.00 0.00 0.00 87 1012.2
20260905041232 17 355 0.0 0.0 0.00 0.00 0.00 87 1012.1
20260905040732 18 355 0.0 0.0 0.00 0.00 0.00 87 1012.2
20260905040232 18 355 0.0 0.0 0.00 0.00 0.00 87 1012.2
20260905035232 18 355 0.0 0.0 0.00 0.00 0.00 86 1012.2
20260905034732 18 5 0.0 0.0 0.00 0.00 0.00 86 1012.2
20260905034232 18 0 0.0 0.0 0.00 0.00 0.00 86 1012.2
20260905033732 18 0 0.0 0.0 0.00 0.00 0.00 86 1012.3
20260905033232 18 5 0.0 0.0 0.00 0.00 0.00 86 1012.3
20260905032232 18 12 0.0 0.0 0.00 0.00 0.00 86 1012.3
20260905031228 18 9 0.0 0.0 0.00 0.00 0.00 85 1012.4
20260905030726 18 351 0.0 0.0 0.00 0.00 0.00 85 1012.3
20260905030225 18 355 0.0 0.0 0.00 0.00 0.00 85 1012.4
20260905025725 18 339 0.0 0.0 0.00 0.00 0.00 85 1012.5
20260905025226 18 339 0.0 0.0 0.00 0.00 0.00 85 1012.5
20260905024725 18 18 0.0 0.0 0.00 0.00 0.00 85 1012.5
20260905024223 18 23 0.0 0.0 0.00 0.00 0.00 85 1012.5
20260905023224 18 351 0.0 0.0 0.00 0.00 0.00 85 1012.5
20260905022722 18 355 0.0 0.0 0.00 0.00 0.00 85 1012.5
20260905022218 18 355 0.0 0.0 0.00 0.00 0.00 85 1012.5
20260905021718 18 351 0.0 0.0 0.00 0.00 0.00 85 1012.5
20260905021220 18 0 0.0 0.0 0.00 0.00 0.00 85 1012.5
20260905020718 18 0 0.0 0.0 0.00 0.00 0.00 85 1012.6
20260905020215 18 5 0.0 0.0 0.00 0.00 0.00 85 1012.7
20260905015712 18 5 0.0 0.0 0.00 0.00 0.00 85 1012.7
20260905015211 18 355 0.0 0.0 0.00 0.00 0.00 85 1012.7
20260905014710 18 0 0.0 4.8 0.00 0.00 0.00 85 1012.8
20260905012655 18 338 0.0 0.0 0.00 0.00 0.00 85 1012.8
20260905012148 18 344 0.0 0.0 0.00 0.00 0.00 85 1012.9
20260905011641 18 0 0.0 0.0 0.00 0.00 0.00 85 1012.8
20260905011141 18 5 0.0 0.0 0.00 0.00 0.00 84 1012.8
20260905010640 18 333 0.0 0.0 0.00 0.00 0.00 84 1012.8
20260905005640 18 355 0.0 1.6 0.00 0.00 0.00 83 1012.7
20260905005138 19 355 0.0 1.6 0.00 0.00 0.00 83 1012.6
20260905004634 19 355 0.0 0.0 0.00 0.00 0.00 82 1012.6
20260905004134 19 355 0.0 0.0 0.00 0.00 0.00 81 1012.6
20260905003633 19 355 0.0 0.0 0.00 0.00 0.00 81 1012.5
20260905003135 19 355 0.0 0.0 0.00 0.00 0.00 81 1012.3
20260905002634 19 355 0.0 0.0 0.00 0.00 0.00 81 1012.3
20260905002134 19 355 0.0 0.0 0.00 0.00 0.00 80 1012.2
20260905001634 19 5 0.0 0.0 0.00 0.00 0.00 80 1012.3
20260905001135 19 355 0.0 0.0 0.00 0.00 0.00 80 1012.2
20260905000634 19 355 0.0 0.0 0.00 0.00 0.00 79 1012.1
20260904235635 20 5 0.0 3.2 0.00 0.00 0.00 78 1011.9
20260904235135 20 5 0.0 1.6 0.00 0.00 0.00 77 1011.8
20260904234634 20 0 0.0 0.0 0.00 0.00 0.00 76 1011.7